Location: Altenst�hlen
(53.5567°N, 8.9425°E)
Time: 13:19:33
(UTC+00:00)

STARLINK-43 - Pass Details

Date: 23 October 2019
Orbit: 478 x 480 km, 53.0° (Epoch: 17 November)

Event Time Altitude Azimuth Distance (km) Brightness Sun altitude
Rises 17:36:53 0° 283° (WNW) 2,539 8.7 -13.4°
Reaches altitude 10° 17:39:07 10° 277° (W) 1,659 7.5 -13.7°
Maximum altitude 17:42:40 42° 205° (SSW) 691 4.3 -14.3°
Enters shadow 17:45:18 16° 139° (SE) 1,311 5.2 -14.7°
